User: anonymous   Login
Location: ????????
(37.9452°N, 23.1472°E)
Time: 12:51:02
(UTC+00:00)
Language:

Cosmos 2366 rocket - Orbit

View from above orbital plane
View from above orbital plane
View from above satellite
View from above satellite

Ground track
Ground track

The orbit data is extracted from the following two-line orbital elements,

1 25893U 99045B   24171.86458352  .00000064  00000-0  49129-4 0  9999
2 25893  82.9266 278.9775 0029685 135.4466 346.8539 13.76688940246817
Epoch (UTC): 19 June 2024 20:45:00
Eccentricity: 0.0029685
inclination: 82.9266°
perigee height: 954 km
apogee height: 997 km
right ascension of ascending node: 278.9775°
argument of perigee: 135.4466°
revolutions per day: 13.76688940
mean anomaly at epoch: 346.8539°
orbit number at epoch: 24681

The dashed part of the orbit path shows where the satellite is in the earth's shadow,  

DLR